User: anonymous   Login
Location: Muenchen
(48.1800°N, 11.5800°E)
Time: 03:53:52
(UTC+02:00)
Language:

Tiros 1 - Orbit

View from above orbital plane
View from above orbital plane
View from above satellite
View from above satellite

Ground track
Ground track

The orbit data is extracted from the following two-line orbital elements,

1 00029U 60002B   16211.35396274 -.00000091  00000-0  17445-4 0  9995
2 00029  48.3792 164.5665 0024825 282.3685  77.4448 14.74079429  9273
Epoch (UTC): 29 July 2016 08:29:42
Eccentricity: 0.0024825
inclination: 48.3792°
perigee height: 630 km
apogee height: 665 km
right ascension of ascending node: 164.5665°
argument of perigee: 282.3685°
revolutions per day: 14.74079429
mean anomaly at epoch: 77.4448°
orbit number at epoch: 927

The dashed part of the orbit path shows where the satellite is in the earth's shadow,  

DLR